Overview Statistics Trail Chart Weather Telemetry Raw packets
 

This is the latest recevied weather packets stored in our database for station/object KA1JKB. If no packets are shown the sender has not sent any weather packets the latest 10 day(s).

<< 84 85 86 87 88 89 90 >>
Time Temp. Humidity Pressure Rain* Wind** Luminosity Snow
1787821821 16.67° C 99% 1010.1 hPa 0 mm - 0 W/m² -
1787821517 16.11° C 99% 1010.2 hPa 0 mm - 0 W/m² -
1787821213 16.11° C 99% 1010.2 hPa 0 mm - 0 W/m² -
1787820912 15° C 99% 1010.3 hPa 0 mm - 0 W/m² -
1787820611 15° C 99% 1009.9 hPa 0 mm - 0 W/m² -
1787820302 15° C 99% 1009.9 hPa 0 mm - 0 W/m² -
1787819997 15° C 99% 1009.7 hPa 0 mm - 0 W/m² -
1787819692 15° C 99% 1009.9 hPa 0 mm - 0 W/m² -
1787819391 15° C 99% 1010.1 hPa 0 mm - 0 W/m² -
1787819087 13.89° C 99% 1009.9 hPa 0 mm - 0 W/m² -
1787818784 14.44° C 99% 1009.9 hPa 0 mm - 0 W/m² -
1787818480 14.44° C 99% 1009.8 hPa 0 mm - 0 W/m² -
1787818177 14.44° C 99% 1009.9 hPa 0 mm - 0 W/m² -
1787817876 13.89° C 99% 1009.9 hPa 0 mm - 0 W/m² -
1787817572 13.33° C 99% 1010 hPa 0 mm - 0 W/m² -
1787817268 13.33° C 99% 1009.7 hPa 0 mm - 0 W/m² -
1787816966 13.33° C 99% 1009.9 hPa 0 mm - 0 W/m² -
1787816662 13.33° C 99% 1009.9 hPa 0 mm - 0 W/m² -
1787816358 13.89° C 99% 1009.9 hPa 0 mm - 0 W/m² -
1787816058 13.89° C 99% 1009.9 hPa 0 mm - 0 W/m² -
1787815753 13.89° C 99% 1009.8 hPa 0 mm - 0 W/m² -
1787815450 13.89° C 99% 1009.8 hPa 0 mm - 0 W/m² -
1787815145 13.89° C 99% 1009.9 hPa 0 mm - 0 W/m² -
1787814841 13.89° C 99% 1009.8 hPa 0 mm - 0 W/m² -
1787814541 14.44° C 99% 1009.9 hPa 0 mm - 0 W/m² -

* Rain latest hour (hover to see other rain measurements)
** Current wind speed in m/s (hover to see current wind gust speed)